Regional Weather Roundup
Issued by NWS Goodland, KS

Home | Current Version | Previous Version | Text Only | Print | Product List | Glossary Off
Versions: 1 2 3 4 5 6 7 8 9 10 11 12 13 14 15 16 17 18 19 20 21 22 23 24 25 26 27 28 29 30 31 32 33 34 35 36 37 38 39 40 41 42 43 44 45 46 47 48 49 50

000
ASUS43 KGLD 170908
RWRGLD

GOODLAND FORECAST AREA HOURLY WEATHER ROUNDUP
NATIONAL WEATHER SERVICE GOODLAND KS
300 AM MDT WED SEP 17 2014

...OFFICIAL OBSERVATIONS...

CITY           SKY/WX    TMP DP  RH WIND       PRES   REMARKS
GOODLAND KS    CLEAR     56  50  80 W6        29.99F
HILL CITY KS   FOG       53  52  96 CALM      29.91F VSB 1/2
IMPERIAL NEB   CLOUDY    50  49  96 NW5       29.98F FOG
MCCOOK NEB     CLEAR     53  52  96 N5        29.95F FOG
AKRON CO       CLEAR     57  45  64 W12       30.04F
BURLINGTON CO  CLEAR     53  47  79 W7        30.02F
LIMON CO       CLEAR     47  41  80 N7        30.11F
$$

...UNOFFICIAL OBSERVATIONS...

CITY           SKY/WX    TMP DP  RH WIND       PRES   REMARKS
COLBY KS       CLEAR     55  55 100 W7        29.97S
GOVE KS          N/A     61  32  33 MISG        N/A
NORTON KS      CLEAR     54  50  87 NW7       29.93  FOG
SHARON SPRINGS   N/A     57  52  84 W7          N/A
WAKEENEY KS      N/A     65  59  80 MISG        N/A
TRENTON NEB      N/A     52  32  46 N5          N/A
YUMA CO          N/A     50  45  83 CALM        N/A
$$


USA.gov is the U.S. government's official web portal to all federal, state and local government web resources and services.